Temp
13 13 13 13 10 11 13 11 11 14 13 13 13 13 13 13 13 11 11 10 10 9 8 8 7 7 6 6 6 6 6 5 5 5 5 4 4 4 4 3 3 3 3 3 4 4 3 3 4
13 13 13 12 11 10 14 13 13 14 12 11 11 12 13 12 12 11 11 10 9 9 8 8 7 7 6 6 6 5 5 5 5 4 4 4 4 3 3 3 3 3 3 3 2 3 3 3 3
13 13 12 12 12 8 11 13 13 12 12 12 12 12 12 11 11 10 10 9 9 8 8 8 7 7 6 6 5 5 5 4 4 4 4 3 3 3 3 3 3 2 2 2 2 2 1 1 2
13 13 13 13 13 13 13 15 14 13 12 12 12 11 11 10 10 10 9 9 8 8 8 8 7 6 6 5 5 4 4 4 3 3 3 3 3 3 3 3 2 2 1 1 0 0 1 0 0
13 13 13 12 11 10 13 15 14 14 12 9 11 11 11 10 9 9 9 8 8 8 7 6 6 5 5 4 4 4 4 3 2 2 2 3 3 2 2 1 1 0 0 -0 -0 -0 0 0 0
12 12 14 14 14 13 13 12 14 13 10 10 12 11 10 10 10 9 8 8 7 7 6 5 5 5 5 4 3 3 2 2 2 3 2 1 1 1 1 -0 -1 -1 -1 -1 -1 -1 -1 -0 -0
12 13 14 14 14 13 12 11 12 8 12 9 11 11 10 10 10 8 8 8 7 6 5 5 5 5 4 3 3 2 2 2 2 1 1 1 1 0 -0 -0 -1 -1 -1 -1 -1 -1 -1 -1 -1
12 13 14 15 15 10 12 12 10 9 11 11 11 12 10 10 9 8 7 7 6 6 5 6 5 3 2 2 2 1 0 1 1 0 1 0 0 0 1 1 -0 -1 -2 -2 -2 -2 -2 -2 -1
12 13 14 15 15 13 13 11 11 11 11 12 12 11 11 9 8 8 7 7 6 5 6 4 3 3 2 1 1 1 1 1 1 1 0 -0 -0 -1 -1 -1 -1 -0 -0 -0 0 -1 -1 -2 -2
13 13 14 15 15 13 11 11 11 10 12 12 11 10 10 9 8 7 7 6 6 7 6 4 2 2 1 0 0 0 1 0 -0 0 0 -1 -2 -2 -1 -2 -2 -2 -3 -2 -2 -3 -3 -3 -4
13 13 14 15 13 13 12 12 12 9 11 11 10 10 9 8 7 7 6 5 4 5 4 3 2 1 1 0 0 -0 -1 -1 -1 -1 -1 -1 -2 -2 -2 -3 -3 -4 -4 -4 -5 -5 -5 -5 -6
13 13 14 14 12 12 11 12 12 12 11 11 9 8 7 7 7 4 1 1 3 4 3 2 2 1 0 0 -0 -1 -1 -2 -2 -2 -2 -2 -3 -3 -3 -4 -4 -5 -6 -5 -6 -6 -7 -7 -7
13 13 13 13 12 11 11 11 11 11 10 8 7 6 6 5 3 1 0 3 4 2 2 1 1 0 -0 -0 -1 -1 -2 -2 -2 -2 -2 -2 -3 -3 -4 -5 -5 -6 -6 -7 -7 -7 -7 -7 -8
13 13 13 13 11 10 10 10 11 10 8 6 6 5 4 3 3 3 4 4 2 2 1 1 0 0 -0 -0 -1 -2 -2 -2 -2 -3 -3 -3 -4 -5 -5 -6 -6 -7 -7 -7 -8 -8 -8 -8 -8
12 12 12 12 11 9 10 10 9 8 7 6 7 6 6 6 6 5 3 2 2 1 1 0 0 0 -0 -1 -2 -2 -1 -2 -3 -4 -4 -5 -5 -6 -6 -7 -7 -7 -8 -8 -8 -8 -8 -8 -8
11 12 12 13 12 11 10 9 9 8 8 7 5 5 5 4 3 3 2 2 1 1 1 0 -0 -1 -1 -1 -1 -1 -1 -2 -3 -4 -4 -5 -6 -7 -7 -7 -7 -8 -8 -8 -8 -8 -8 -8 -9
12 12 13 12 12 11 10 9 9 8 7 4 4 4 3 3 3 3 2 2 1 1 -0 0 -1 -1 -1 -1 -2 -3 -4 -5 -5 -5 -6 -7 -7 -7 -7 -8 -8 -8 -8 -8 -9 -9 -9 -9 -9
13 13 14 13 11 11 10 10 9 8 5 4 4 3 3 3 3 2 2 1 1 0 -0 -0 -1 -2 -2 -2 -2 -3 -4 -5 -5 -6 -7 -7 -8 -8 -8 -8 -8 -8 -9 -9 -9 -9 -10 -10 -10
13 14 14 13 11 11 9 9 9 7 4 3 3 3 3 3 2 2 1 1 0 -0 -1 -1 -2 -2 -2 -2 -3 -3 -5 -6 -6 -7 -8 -8 -8 -9 -9 -9 -9 -9 -9 -9 -10 -10 -11 -11 -12
13 13 13 12 11 12 8 6 6 7 4 3 3 3 3 2 2 2 1 -0 -0 -0 -1 -2 -2 -2 -2 -3 -3 -4 -6 -7 -7 -8 -8 -9 -9 -9 -9 -9 -9 -10 -10 -10 -11 -12 -12 -13 -13
13 13 13 14 11 11 9 6 6 3 2 3 3 3 3 2 2 1 0 -0 -0 -1 -2 -2 -2 -2 -2 -3 -4 -5 -6 -7 -8 -8 -8 -9 -9 -9 -10 -10 -10 -10 -10 -11 -11 -12 -12 -13 -13
13 13 13 13 12 12 9 8 3 4 3 2 3 2 2 2 2 0 -0 -1 -2 -2 -2 -2 -2 -2 -3 -4 -5 -6 -7 -8 -8 -9 -9 -9 -10 -10 -10 -10 -10 -11 -11 -11 -12 -12 -12 -13 -13
12 13 13 13 13 12 10 9 4 6 5 3 3 2 2 2 1 0 -0 -2 -2 -3 -3 -3 -3 -3 -4 -5 -6 -7 -8 -8 -9 -9 -9 -9 -10 -10 -10 -10 -11 -11 -11 -12 -12 -12 -13 -13 -14
12 12 12 12 12 13 12 10 4 5 7 5 2 2 2 1 0 -0 -2 -2 -2 -2 -2 -3 -3 -4 -5 -6 -7 -8 -8 -9 -9 -9 -9 -10 -10 -10 -10 -11 -11 -11 -11 -12 -12 -12 -13 -13 -14
12 12 12 12 12 11 10 10 7 6 6 5 4 3 2 1 0 -1 -2 -2 -3 -3 -3 -4 -5 -5 -6 -7 -8 -8 -9 -9 -9 -9 -10 -10 -10 -10 -11 -11 -11 -11 -12 -12 -12 -13 -13 -14 -15
11 12 13 12 11 13 11 9 5 4 4 4 3 2 1 0 -1 -3 -2 -3 -3 -2 -3 -4 -5 -5 -6 -7 -8 -8 -9 -9 -9 -10 -10 -10 -10 -10 -11 -11 -11 -12 -12 -12 -13 -13 -14 -15 -15
12 12 13 13 13 14 8 5 3 3 5 4 3 1 1 0 -1 -3 -2 -3 -3 -4 -3 -4 -5 -6 -7 -8 -8 -9 -9 -9 -10 -10 -10 -10 -10 -11 -11 -11 -12 -12 -13 -13 -14 -15 -16 -16 -16
12 12 12 13 12 12 8 8 4 2 3 3 1 1 0 -0 -4 -2 -3 -2 -3 -4 -4 -4 -5 -6 -7 -8 -8 -9 -9 -10 -10 -10 -10 -10 -10 -11 -11 -11 -12 -12 -13 -14 -15 -16 -16 -15 -15
12 12 13 13 11 10 12 7 5 3 3 0 -0 -1 -1 -3 -3 -2 -3 -2 -2 -4 -4 -4 -5 -6 -7 -8 -9 -9 -10 -10 -10 -10 -10 -10 -11 -11 -11 -12 -12 -13 -14 -15 -15 -16 -15 -14 -14
12 12 12 13 13 11 11 5 5 3 1 0 -1 -1 -3 -3 -2 -2 -2 -2 -3 -3 -4 -5 -6 -7 -7 -8 -9 -9 -10 -10 -10 -10 -10 -10 -11 -11 -11 -12 -13 -14 -15 -15 -16 -15 -15 -14 -14
Height
3160 3159 3156 3155 3159 3156 3150 3153 3139 3144 3148 3148 3148 3147 3150 3152 3154 3158 3156 3156 3157 3158 3157 3157 3156 3156 3155 3154 3154 3153 3152 3150 3149 3147 3146 3144 3142 3140 3138 3136 3133 3132 3129 3127 3126 3125 3123 3121 3121
3160 3159 3156 3156 3157 3159 3152 3152 3145 3143 3148 3148 3146 3145 3149 3151 3153 3154 3154 3155 3156 3157 3157 3156 3156 3155 3155 3154 3153 3152 3150 3149 3148 3146 3144 3142 3140 3137 3135 3132 3129 3126 3124 3121 3119 3118 3116 3115 3114
3161 3159 3157 3155 3156 3159 3156 3154 3151 3147 3148 3148 3146 3148 3148 3150 3152 3153 3154 3155 3155 3155 3155 3155 3155 3154 3154 3153 3151 3150 3148 3147 3145 3143 3141 3139 3137 3134 3131 3127 3124 3121 3118 3116 3114 3112 3110 3108 3107
3161 3159 3157 3154 3156 3157 3150 3149 3148 3146 3147 3148 3148 3148 3152 3150 3152 3153 3153 3154 3155 3155 3155 3154 3154 3153 3153 3152 3150 3148 3147 3144 3142 3140 3138 3136 3132 3128 3125 3123 3120 3117 3114 3111 3108 3106 3103 3102 3100
3160 3158 3157 3157 3163 3159 3151 3151 3149 3148 3141 3145 3152 3149 3152 3150 3150 3152 3153 3154 3154 3154 3154 3154 3153 3152 3151 3149 3148 3146 3143 3141 3139 3137 3133 3131 3128 3124 3121 3118 3115 3112 3108 3105 3102 3100 3097 3095 3094
3160 3159 3156 3157 3155 3151 3153 3152 3148 3145 3144 3148 3149 3149 3153 3149 3149 3152 3153 3154 3154 3153 3153 3153 3152 3151 3150 3147 3145 3142 3141 3140 3137 3134 3131 3126 3124 3121 3117 3114 3109 3106 3102 3098 3095 3093 3090 3088 3086
3159 3160 3155 3154 3153 3153 3152 3151 3146 3143 3141 3149 3151 3148 3151 3148 3149 3151 3153 3153 3153 3153 3152 3152 3151 3149 3149 3147 3146 3143 3141 3138 3134 3130 3126 3122 3120 3117 3113 3109 3105 3100 3096 3093 3090 3086 3083 3080 3077
3162 3162 3156 3149 3144 3159 3155 3150 3145 3149 3146 3152 3153 3148 3148 3148 3149 3151 3152 3152 3152 3151 3149 3149 3147 3147 3147 3145 3143 3140 3137 3134 3131 3127 3123 3118 3115 3109 3102 3099 3098 3094 3090 3087 3084 3080 3076 3073 3070
3162 3162 3154 3152 3152 3153 3151 3144 3146 3150 3152 3151 3146 3146 3147 3148 3149 3150 3151 3151 3149 3149 3148 3147 3145 3144 3143 3142 3140 3137 3134 3131 3127 3123 3119 3112 3107 3101 3100 3093 3087 3086 3084 3080 3077 3073 3070 3067 3064
3161 3160 3155 3156 3154 3152 3156 3150 3148 3145 3146 3144 3145 3146 3147 3148 3149 3150 3150 3150 3151 3150 3148 3145 3144 3142 3140 3138 3136 3133 3127 3122 3116 3114 3114 3108 3103 3098 3093 3090 3084 3078 3073 3070 3068 3063 3059 3056 3054
3159 3157 3155 3156 3152 3154 3149 3150 3149 3144 3146 3147 3147 3147 3148 3148 3148 3149 3149 3150 3148 3145 3145 3145 3143 3141 3139 3137 3133 3129 3127 3122 3115 3109 3105 3104 3099 3093 3089 3084 3080 3075 3070 3064 3060 3057 3053 3050 3046
3156 3155 3155 3155 3149 3147 3148 3148 3145 3144 3146 3147 3147 3147 3148 3148 3148 3149 3150 3147 3143 3143 3144 3144 3141 3138 3136 3134 3131 3127 3124 3118 3113 3106 3101 3096 3093 3088 3084 3078 3073 3068 3063 3059 3055 3051 3047 3043 3040
3153 3153 3154 3153 3147 3147 3150 3148 3148 3146 3146 3146 3146 3147 3147 3148 3149 3150 3146 3142 3145 3144 3143 3141 3137 3135 3134 3132 3128 3124 3119 3113 3107 3101 3095 3092 3086 3081 3076 3071 3067 3062 3057 3053 3049 3045 3041 3038 3035
3151 3151 3151 3151 3145 3146 3148 3149 3148 3146 3146 3145 3146 3146 3146 3146 3144 3144 3143 3146 3145 3143 3141 3138 3136 3134 3132 3127 3123 3119 3115 3109 3102 3095 3088 3085 3080 3076 3071 3066 3062 3057 3053 3049 3044 3040 3036 3032 3029
3148 3149 3148 3148 3147 3143 3147 3147 3145 3145 3145 3144 3143 3145 3144 3144 3144 3146 3146 3145 3143 3141 3139 3134 3134 3133 3128 3123 3120 3114 3109 3104 3098 3092 3086 3081 3075 3071 3066 3061 3057 3052 3048 3044 3040 3036 3031 3027 3023
3146 3147 3145 3143 3145 3142 3145 3144 3144 3144 3143 3143 3144 3145 3144 3144 3145 3145 3144 3143 3142 3140 3137 3135 3133 3128 3123 3121 3114 3107 3103 3098 3093 3087 3082 3077 3071 3066 3062 3057 3053 3048 3044 3039 3035 3030 3026 3021 3017
3142 3141 3139 3140 3143 3143 3143 3142 3142 3141 3141 3142 3143 3144 3144 3143 3144 3143 3142 3142 3141 3139 3136 3134 3131 3126 3121 3116 3111 3106 3099 3092 3086 3081 3078 3073 3069 3064 3059 3054 3049 3044 3039 3035 3029 3024 3019 3015 3010
3134 3136 3135 3135 3141 3141 3139 3139 3140 3139 3140 3141 3142 3143 3143 3143 3143 3142 3141 3142 3140 3138 3135 3131 3127 3123 3117 3112 3107 3101 3096 3090 3084 3078 3073 3069 3065 3060 3055 3050 3045 3040 3034 3029 3024 3019 3013 3008 3004
3133 3133 3133 3132 3137 3141 3137 3138 3138 3137 3139 3140 3141 3141 3142 3142 3142 3141 3140 3140 3138 3136 3132 3128 3124 3120 3114 3107 3102 3097 3092 3086 3081 3076 3071 3066 3061 3056 3051 3046 3041 3035 3029 3023 3018 3011 3006 3002 2998
3133 3133 3135 3133 3135 3138 3137 3136 3135 3136 3136 3137 3139 3140 3140 3140 3140 3140 3140 3137 3135 3133 3130 3125 3120 3115 3110 3104 3099 3093 3088 3083 3078 3073 3068 3063 3058 3052 3047 3041 3035 3029 3023 3017 3011 3005 3000 2996 2993
3130 3131 3132 3132 3130 3135 3136 3137 3134 3135 3136 3137 3137 3137 3137 3138 3138 3138 3136 3134 3133 3131 3128 3122 3117 3112 3107 3102 3096 3091 3086 3081 3076 3071 3066 3061 3055 3049 3042 3036 3029 3023 3017 3011 3005 3000 2995 2989 2987
3127 3128 3129 3129 3130 3131 3131 3135 3134 3135 3136 3136 3135 3134 3135 3137 3137 3136 3135 3133 3131 3129 3125 3119 3114 3110 3104 3099 3093 3087 3082 3077 3072 3068 3063 3058 3051 3045 3038 3031 3025 3019 3012 3006 3000 2995 2990 2985 2979
3125 3124 3124 3126 3126 3127 3125 3128 3129 3131 3129 3130 3131 3130 3133 3134 3135 3134 3132 3131 3129 3125 3120 3118 3112 3107 3101 3095 3090 3085 3080 3075 3070 3065 3060 3054 3048 3041 3034 3028 3021 3014 3007 3001 2995 2989 2984 2979 2972
3122 3124 3124 3124 3122 3119 3120 3124 3127 3126 3125 3125 3126 3127 3132 3133 3134 3133 3133 3131 3129 3125 3121 3115 3109 3103 3098 3093 3088 3083 3078 3073 3068 3063 3057 3051 3044 3038 3031 3024 3017 3010 3002 2996 2990 2984 2978 2972 2966
3119 3121 3121 3120 3118 3122 3125 3124 3127 3129 3126 3125 3125 3127 3130 3132 3133 3133 3131 3129 3126 3123 3119 3114 3107 3101 3096 3091 3086 3081 3076 3071 3066 3060 3054 3047 3041 3034 3027 3019 3012 3005 2998 2992 2985 2978 2971 2964 2958
3115 3117 3115 3114 3117 3114 3117 3123 3130 3126 3123 3125 3126 3129 3130 3132 3132 3131 3130 3128 3124 3121 3116 3112 3106 3100 3095 3090 3085 3080 3075 3070 3064 3058 3052 3046 3038 3031 3023 3016 3009 3001 2993 2985 2978 2971 2964 2957 2951
3112 3113 3113 3112 3111 3108 3116 3126 3129 3124 3122 3123 3125 3128 3130 3130 3130 3130 3130 3127 3123 3118 3114 3110 3104 3099 3094 3089 3084 3079 3073 3068 3062 3057 3051 3044 3037 3029 3021 3013 3005 2997 2989 2981 2973 2965 2957 2950 2944
3107 3110 3111 3110 3110 3110 3117 3118 3123 3123 3120 3123 3125 3127 3129 3129 3131 3129 3128 3125 3122 3118 3112 3108 3103 3098 3093 3088 3083 3077 3072 3067 3062 3056 3050 3042 3035 3027 3019 3010 3002 2994 2985 2976 2967 2959 2951 2943 2937
3105 3106 3107 3107 3112 3115 3108 3122 3120 3121 3122 3121 3124 3128 3128 3131 3129 3128 3126 3124 3121 3117 3112 3107 3103 3098 3092 3087 3081 3077 3072 3067 3061 3055 3048 3041 3033 3025 3017 3008 2999 2990 2981 2972 2962 2954 2946 2938 2931
3101 3103 3105 3105 3106 3107 3108 3124 3123 3121 3122 3125 3126 3128 3131 3130 3129 3128 3126 3123 3120 3116 3112 3107 3102 3097 3091 3086 3080 3076 3071 3066 3060 3054 3047 3040 3032 3024 3015 3007 2997 2988 2978 2968 2959 2951 2943 2934 2928
Wind_Speed
5 4 6 4 6 10 12 3 15 14 14 7 7 6 9 6 2 5 2 2 3 4 4 5 7 9 9 11 12 13 14 15 16 17 19 20 22 23 24 24 25 26 26 27 27 24 24 25 26
6 4 7 7 13 18 7 6 6 12 13 13 17 2 6 6 4 3 3 3 3 4 5 6 9 9 11 13 14 15 16 17 18 20 22 24 25 26 27 27 27 28 30 30 30 30 29 29 28
6 6 9 10 2 4 17 2 9 12 11 3 2 2 3 4 3 1 1 3 4 4 6 9 10 11 13 15 16 17 18 19 21 23 24 25 26 27 28 29 30 31 31 32 32 33 32 32 32
5 6 12 11 10 9 7 4 5 6 8 4 6 3 3 3 2 3 5 4 2 5 8 10 10 11 13 16 17 18 19 20 21 22 24 26 27 30 31 31 30 31 32 32 31 31 32 32 33
4 7 15 6 4 8 19 2 2 3 14 12 5 8 5 4 3 5 4 1 2 4 7 9 10 12 14 15 17 18 18 18 19 21 24 28 31 31 30 29 30 30 30 31 31 31 32 32 31
7 13 25 12 19 14 6 10 7 5 10 5 2 4 7 5 4 5 4 3 5 7 9 10 12 14 16 15 13 13 15 17 22 27 29 33 33 30 29 30 30 31 32 33 34 35 35 35 34
10 14 24 26 21 10 7 10 14 18 2 8 9 10 9 4 7 5 4 5 9 10 9 11 12 13 12 14 15 16 19 26 28 29 33 35 31 29 29 30 30 32 34 36 38 37 37 37 37
12 18 22 23 7 1 4 15 11 5 5 5 6 10 12 10 9 3 3 6 7 8 7 9 9 7 13 15 18 22 24 29 32 33 34 32 33 34 36 38 34 34 35 38 36 35 36 36 37
14 16 21 20 13 11 13 1 4 9 9 14 17 15 14 11 4 4 4 7 10 9 9 12 15 19 16 17 18 21 28 29 32 31 31 35 35 37 36 39 43 41 38 37 37 35 33 33 31
14 17 21 17 10 10 5 7 7 9 11 16 14 13 10 7 3 3 7 10 13 20 19 14 14 17 19 19 23 26 35 40 40 38 32 34 36 38 39 37 40 40 40 40 37 38 40 39 36
15 18 16 17 9 7 9 8 4 1 9 12 14 9 7 5 4 2 10 5 6 14 22 16 17 16 20 18 21 26 33 34 34 38 40 35 35 36 35 33 35 35 36 38 37 37 36 36 36
16 17 18 17 9 10 8 11 14 17 16 15 12 5 4 3 2 7 5 8 13 15 15 15 14 17 23 22 30 32 31 32 33 37 38 37 33 32 32 33 33 34 34 36 35 35 35 34 32
16 15 15 10 13 13 15 9 12 18 14 7 4 1 3 6 9 15 18 16 18 10 14 17 14 16 21 27 31 32 31 33 37 37 37 34 34 35 35 34 33 33 33 33 33 33 32 32 31
14 11 13 10 11 10 8 12 14 12 7 4 6 7 10 12 16 18 16 16 11 11 13 18 20 23 29 34 31 32 34 34 34 35 38 37 34 34 33 32 31 31 31 30 32 32 32 32 31
14 15 13 13 10 9 13 11 11 6 5 9 12 8 11 11 10 7 10 10 11 13 16 16 23 27 32 31 31 35 34 30 31 31 33 34 34 33 31 30 30 30 29 30 30 31 32 32 32
11 13 16 19 15 18 13 11 14 7 10 10 8 7 9 8 6 9 10 11 12 16 19 21 30 32 32 31 36 36 35 32 32 33 34 32 32 31 30 29 29 30 29 30 31 32 33 34 33
13 15 19 15 12 10 12 13 12 12 13 8 6 8 10 10 9 11 11 10 13 17 22 27 28 29 32 34 31 29 31 32 34 33 32 29 29 29 28 28 29 29 30 31 32 33 34 33 31
20 21 8 16 10 10 10 13 14 16 13 10 10 10 11 11 11 11 8 14 15 23 22 28 27 29 31 30 30 30 31 30 31 30 32 31 29 28 29 29 29 30 31 31 32 33 32 31 29
21 15 9 12 11 4 8 16 16 17 12 11 11 12 11 9 11 11 11 11 19 20 24 26 29 28 28 30 33 32 30 28 27 28 29 30 30 30 30 30 30 30 32 32 33 32 32 29 27
17 15 13 6 6 4 7 9 14 14 13 11 10 11 11 11 10 10 13 13 18 21 24 27 29 29 30 33 32 31 28 26 27 27 28 29 31 31 31 32 32 32 33 33 33 31 30 28 26
17 18 16 17 7 2 12 13 23 15 13 13 12 11 13 12 10 12 11 14 20 21 24 28 28 31 32 31 30 28 26 25 25 26 27 28 29 31 32 33 33 34 35 34 32 30 30 32 29
19 17 16 11 8 15 18 3 10 10 14 15 14 12 12 13 13 8 13 16 19 22 26 27 30 31 32 31 30 28 28 27 27 27 27 28 30 31 32 33 34 35 35 34 32 30 31 31 33
18 10 11 14 18 13 23 12 11 3 22 19 16 15 11 14 11 9 10 16 19 26 27 27 30 31 32 32 31 28 27 27 27 27 28 30 31 32 33 34 35 35 34 32 31 31 31 31 32
18 10 13 15 19 17 10 14 12 13 13 13 17 13 7 11 6 10 10 16 18 22 24 29 32 34 33 32 30 29 28 28 28 29 30 32 33 33 33 34 35 34 33 32 32 32 32 33 30
19 15 14 13 12 5 6 5 2 8 12 8 4 3 8 8 6 7 11 14 20 21 24 27 31 32 32 31 30 28 28 28 29 31 32 34 34 34 35 36 35 34 34 33 32 32 32 30 28
23 21 17 6 3 10 15 7 6 6 13 4 4 5 6 5 4 3 10 15 20 22 26 27 29 31 32 30 29 29 28 28 29 31 33 34 34 35 36 37 36 35 34 33 33 33 34 33 34
18 23 21 19 16 14 15 18 13 7 1 1 5 8 6 3 1 6 10 14 17 22 26 29 30 31 30 29 28 28 27 29 30 31 32 33 34 35 37 37 36 35 33 34 35 36 37 38 34
23 13 18 14 9 9 10 10 16 12 3 6 8 6 4 2 5 6 11 14 18 22 27 30 30 30 29 29 28 27 27 28 29 30 31 33 34 37 37 36 36 37 38 38 36 37 38 36 31
18 16 13 15 9 5 11 8 10 13 3 8 7 3 4 8 8 5 9 15 20 22 26 29 29 29 29 29 28 27 27 28 29 30 31 33 35 37 37 37 38 39 38 38 40 40 36 31 26
21 20 17 13 7 10 9 5 11 13 10 16 11 11 10 6 5 5 10 16 18 23 25 28 29 29 29 28 27 26 27 27 28 29 30 32 34 36 36 38 39 41 41 40 42 41 36 32 28
Wind_Direction
181 197 262 268 266 233 214 37 226 102 89 85 85 132 107 108 188 213 207 317 281 281 276 275 274 284 284 293 299 301 303 303 303 307 307 308 309 309 309 310 309 308 306 304 301 299 296 294 292
189 203 275 327 258 351 346 1 75 103 120 108 91 104 107 104 153 204 218 245 255 283 290 287 292 297 299 300 305 305 305 305 308 311 312 313 312 312 312 311 309 307 305 304 302 300 297 294 292
206 244 276 254 169 176 292 95 112 116 105 178 109 144 123 113 146 185 262 232 242 276 304 314 316 310 308 307 308 309 312 313 315 315 315 314 315 316 314 312 310 307 305 302 300 300 298 297 297
212 250 301 266 344 239 236 126 95 110 105 210 211 152 71 74 176 224 224 228 300 329 320 319 318 313 314 313 314 316 318 316 318 319 320 321 321 318 316 311 308 306 304 301 302 301 300 299 299
213 255 265 23 280 306 305 314 170 170 162 89 314 35 22 359 262 248 236 288 347 335 332 323 323 323 319 316 315 316 316 316 319 320 323 325 323 319 313 310 310 309 308 307 305 305 304 302 299
256 283 284 328 311 264 288 296 149 332 82 68 70 359 335 337 326 291 290 351 356 353 352 338 330 331 325 320 317 317 317 324 325 324 324 325 319 317 312 312 310 311 311 310 309 307 305 303 301
263 289 288 286 265 301 244 342 243 24 243 25 324 335 339 337 327 303 330 346 351 352 347 348 343 335 321 325 326 324 321 324 325 326 326 324 319 314 308 306 308 311 310 309 307 307 307 306 304
269 286 291 293 7 233 281 225 343 241 240 297 306 329 330 312 323 309 309 334 344 337 347 324 315 334 338 322 321 330 328 326 324 322 321 318 317 314 324 318 315 313 309 308 309 309 308 306 305
259 274 279 299 343 6 332 36 4 316 312 292 306 304 315 317 312 294 310 324 342 335 319 316 328 330 326 324 320 322 321 314 314 321 323 321 325 320 320 317 316 312 307 306 308 308 307 306 306
253 260 265 312 341 30 81 82 359 324 327 317 319 300 307 323 307 305 311 2 0 343 314 311 326 326 327 323 314 324 327 328 324 323 323 322 323 317 318 316 313 317 318 316 319 320 318 318 318
250 258 274 300 320 339 312 293 248 88 306 302 311 307 312 311 324 311 35 26 308 298 310 312 323 321 326 305 318 326 324 319 320 319 322 321 317 315 315 314 314 315 318 318 321 321 319 319 317
258 263 269 285 350 271 285 272 280 284 304 281 281 291 337 345 39 74 131 221 255 292 312 312 302 317 319 303 319 325 323 319 318 318 316 317 319 316 317 318 320 318 318 319 320 320 319 321 319
259 267 259 276 266 270 261 276 290 296 301 282 249 187 100 116 122 153 201 246 325 302 293 299 295 317 321 323 316 319 323 321 318 316 318 322 323 324 324 323 322 320 318 322 321 319 319 318 318
260 276 251 244 271 268 280 292 298 289 280 209 202 161 156 168 196 212 243 321 304 262 296 304 302 322 322 320 323 323 324 320 319 320 322 327 324 325 325 323 323 321 324 321 319 318 317 315 313
259 259 252 243 205 218 295 290 299 289 236 229 240 216 216 229 268 290 329 286 264 267 299 308 319 316 320 325 324 321 325 322 321 321 322 328 327 329 328 327 326 325 325 321 319 316 314 312 309
267 252 256 236 210 248 260 271 292 288 266 257 264 248 241 262 289 280 263 258 279 299 314 316 316 321 325 325 326 327 326 325 327 327 328 331 329 330 332 331 329 327 325 322 320 317 316 312 310
239 243 232 172 201 217 242 242 261 278 274 270 259 247 247 258 269 258 273 289 300 313 314 317 316 324 326 329 330 327 328 329 330 329 332 334 332 333 332 330 327 326 323 323 321 320 316 313 309
240 217 242 181 176 211 239 266 265 264 258 257 250 253 253 260 262 263 267 299 306 318 314 317 325 329 330 331 331 332 331 330 330 332 335 337 336 335 332 330 328 327 325 323 322 318 317 319 317
269 288 296 149 147 181 220 260 262 251 241 242 246 263 260 244 264 253 283 296 305 319 320 324 330 335 335 334 336 335 334 334 333 335 335 336 336 334 332 330 329 327 326 326 323 323 322 320 321
253 257 249 132 185 295 198 252 260 260 255 247 243 264 261 247 259 264 289 294 322 324 327 331 334 339 340 337 337 338 337 338 338 337 336 338 334 334 332 332 331 331 329 327 326 324 321 317 316
243 242 244 258 176 213 173 251 263 247 232 230 233 251 236 245 244 267 288 306 326 329 334 336 339 340 340 339 340 341 342 340 339 339 339 337 335 335 334 333 333 331 329 327 325 325 321 317 314
242 236 242 247 209 251 198 222 203 247 246 233 233 240 242 251 257 260 299 329 322 332 339 340 340 339 341 343 346 347 346 345 344 343 342 340 339 337 335 335 333 331 329 327 326 324 321 320 317
240 245 226 238 252 242 224 224 169 254 252 236 225 236 228 234 247 286 323 325 327 339 340 339 337 343 346 348 350 350 349 347 346 346 345 344 342 339 337 336 333 331 330 328 326 324 321 320 315
227 235 243 251 254 240 243 225 207 222 267 241 217 236 242 240 245 309 317 314 335 337 337 337 342 345 349 351 351 351 349 349 350 349 347 345 343 341 338 337 334 333 331 329 328 327 325 322 315
221 225 231 231 236 359 290 268 119 192 236 251 310 182 217 212 283 309 305 330 333 331 337 345 344 348 350 352 352 351 351 352 350 349 347 346 346 343 340 339 337 336 335 333 330 329 326 324 319
217 215 227 232 304 249 244 103 88 158 202 233 155 159 189 231 265 305 310 326 329 334 344 347 349 351 352 352 351 351 352 351 351 349 349 349 346 345 341 340 342 342 338 335 333 331 331 329 323
210 228 237 253 263 268 125 105 122 217 167 78 141 167 172 205 271 256 320 327 332 335 344 352 353 352 352 352 353 353 352 353 351 351 351 350 348 345 345 346 347 344 341 339 335 336 334 326 321
230 226 237 238 274 308 108 128 151 170 202 152 149 140 147 137 177 294 325 330 336 343 346 354 353 351 353 353 355 353 353 353 353 353 353 351 349 349 350 350 350 348 347 342 341 344 338 330 323
216 240 226 245 198 185 254 84 157 187 214 145 168 145 95 136 256 317 323 334 344 350 348 354 353 353 354 356 355 355 355 356 356 356 354 353 354 355 355 356 354 355 351 348 348 347 339 332 326
213 215 232 241 275 345 315 102 159 165 143 167 176 134 159 208 283 332 330 342 343 353 352 353 355 355 357 357 356 357 357 359 358 357 356 357 359 0 3 2 2 359 358 357 354 348 344 337 332